Wetbulb
66.66 66.11 62.47 61.25 53.16 51.14 48.72 49.29 53.59 56.57 57.87 60.14 61.90 62.31 61.91 62.94 60.65 58.85 69.62 71.84 71.40 72.11 74.41 74.65 74.60 74.80 75.03 74.85 74.63 74.26 73.78 73.61 73.56 73.76 73.76 73.41 73.11 72.40 71.49 71.26 69.83 68.70 68.11 67.78 67.62 67.55 67.50 67.26 67.02
64.97 63.23 61.90 58.48 49.77 47.29 48.51 52.41 51.84 56.13 59.32 61.15 61.60 62.94 62.00 61.65 64.92 64.80 66.79 71.57 72.30 73.27 74.88 72.37 74.51 74.63 74.58 74.31 74.11 73.83 73.53 73.26 73.13 73.06 72.96 72.56 72.06 71.74 70.21 69.99 69.36 68.39 68.64 68.45 68.05 67.64 67.26 67.10 66.81
65.59 60.88 56.04 52.45 49.93 47.27 48.64 52.10 55.07 56.44 60.57 60.69 61.04 63.04 62.21 63.56 66.78 65.19 70.41 71.50 72.58 74.08 75.10 73.44 74.56 74.13 74.08 74.20 73.71 73.26 73.04 72.96 72.74 72.68 72.26 71.91 71.51 71.35 70.67 70.23 70.24 69.13 68.77 68.53 68.12 67.89 67.81 68.02 68.08
60.32 58.17 56.47 50.09 48.27 50.56 51.53 54.65 55.44 58.08 60.47 62.10 61.83 59.93 63.03 66.56 67.43 67.58 71.12 70.88 72.26 73.21 74.18 74.71 74.36 74.11 73.78 74.18 73.78 73.24 72.99 72.71 72.48 72.33 72.04 71.64 71.30 71.26 70.77 70.61 70.68 70.03 69.29 69.21 68.89 68.96 68.87 68.81 68.81
60.66 56.52 49.16 48.23 48.45 51.52 53.80 54.55 55.92 57.03 58.55 60.21 62.48 61.15 61.82 66.39 69.36 70.07 71.00 70.30 71.18 72.33 73.37 74.48 74.35 74.23 74.13 74.43 73.88 73.16 72.96 72.57 72.44 72.33 71.96 71.66 71.61 71.30 71.03 71.05 70.59 69.97 69.56 69.64 69.73 69.78 69.53 69.51 69.59
54.89 55.95 48.28 45.90 48.34 51.23 53.57 55.43 56.24 56.72 58.64 60.15 61.10 61.92 62.91 67.73 68.98 69.64 71.05 71.12 70.83 72.08 73.47 73.12 74.43 74.33 74.13 74.28 73.91 73.29 72.72 72.42 72.39 72.29 72.19 71.82 71.77 71.62 71.30 71.15 70.70 70.80 70.71 70.32 70.26 70.44 70.42 70.32 70.09
54.11 50.34 48.04 48.48 48.58 49.78 52.20 56.04 54.73 55.94 58.27 59.72 62.78 60.51 63.80 65.93 68.52 70.39 71.12 72.22 72.13 72.39 73.35 73.74 74.17 74.04 74.20 74.18 73.83 73.45 72.76 72.27 72.05 71.82 71.85 71.75 71.67 71.70 71.38 71.38 70.98 71.06 71.39 71.44 70.93 70.96 70.73 70.51 70.07
56.58 53.56 48.58 48.33 46.95 48.74 53.55 54.53 55.72 55.70 57.49 62.07 62.81 60.16 61.61 65.93 70.17 70.78 70.79 71.52 72.20 72.73 72.67 73.68 74.23 73.56 72.71 72.31 73.98 73.82 73.13 72.37 72.24 72.15 71.87 71.48 72.00 71.87 71.55 70.89 70.99 71.13 71.20 70.85 71.23 71.28 70.88 70.89 70.55
58.94 50.96 48.73 48.89 47.52 48.30 52.79 53.17 56.76 59.49 59.16 60.17 61.18 62.14 62.85 66.83 70.23 70.02 70.02 69.92 69.89 70.55 72.68 73.22 72.80 73.43 73.30 71.46 71.96 73.66 73.26 73.01 72.56 72.41 72.12 71.45 70.26 70.56 70.53 70.19 71.06 71.53 71.43 71.16 71.58 71.63 71.75 71.06 70.66
55.51 51.25 51.30 53.34 52.85 50.99 52.19 54.08 55.15 56.96 57.83 58.97 59.97 62.50 63.72 65.01 67.61 67.85 68.28 67.62 68.90 69.62 71.09 72.68 73.42 73.00 73.40 71.58 72.40 73.19 72.01 72.38 71.98 70.75 70.90 70.34 69.75 70.50 69.47 70.62 71.41 71.68 71.80 71.90 71.80 71.72 71.38 71.28 71.68
56.43 52.31 54.75 55.03 54.66 53.33 52.40 53.50 55.71 55.79 56.18 59.29 59.43 61.45 62.83 63.40 64.03 64.69 64.95 66.48 67.98 69.72 71.10 72.58 73.76 73.31 72.77 72.34 71.71 72.06 72.41 72.25 72.53 71.83 72.66 72.14 69.51 70.23 70.07 69.95 70.52 70.68 71.56 70.73 70.95 71.54 71.77 71.77 71.51
52.45 55.92 56.49 56.56 56.40 54.64 52.68 55.30 53.95 54.60 56.24 60.41 60.79 62.52 62.64 62.92 63.89 64.16 64.52 65.30 65.85 67.05 69.13 71.21 74.10 73.36 73.20 72.40 71.90 72.06 71.65 72.06 72.21 72.54 73.89 72.68 70.54 71.13 70.27 69.15 70.09 70.25 69.91 70.14 70.54 70.63 71.76 71.82 71.76
52.32 53.64 55.51 57.18 56.89 56.26 56.23 54.72 55.26 55.53 57.88 59.41 60.46 61.07 61.90 63.11 63.64 64.89 65.26 65.56 66.46 66.18 67.52 69.69 73.44 74.92 74.31 73.72 72.74 73.47 73.46 72.11 72.99 72.91 73.10 72.25 70.98 71.74 70.41 70.26 69.18 69.83 69.67 69.80 69.97 70.31 71.35 71.27 71.57
52.45 52.98 53.85 54.48 55.45 56.36 54.38 54.95 57.06 58.11 59.81 59.99 60.83 61.44 62.06 61.96 62.91 63.99 64.54 65.00 66.19 67.58 68.34 70.65 71.75 74.29 75.01 74.45 74.74 73.71 73.44 73.40 72.53 72.41 72.28 73.49 71.85 72.66 70.01 69.94 69.12 68.77 69.29 69.33 69.80 69.81 70.15 70.70 71.33
50.73 49.16 51.73 53.79 53.96 53.19 56.04 52.76 54.26 58.54 60.21 59.95 60.22 60.67 61.28 62.00 62.72 63.01 64.22 65.39 66.89 67.92 69.32 69.85 70.93 71.85 73.21 73.79 74.16 73.89 73.13 72.75 72.12 72.17 73.42 72.64 72.85 72.70 72.28 69.60 69.37 68.82 69.87 69.98 69.65 69.72 69.91 70.03 71.16
46.73 47.88 44.51 51.04 53.05 54.29 52.77 49.05 55.72 58.60 58.50 58.48 59.34 59.79 60.20 61.82 62.43 63.72 64.60 66.05 67.59 68.05 68.41 69.55 68.58 69.38 71.14 72.61 73.15 72.77 72.71 72.40 72.09 72.06 72.62 72.82 73.00 72.63 71.65 70.25 69.69 69.68 69.73 68.97 68.50 68.12 67.39 67.47 70.86
45.74 41.49 44.34 46.72 52.50 52.06 51.33 49.40 54.82 57.91 58.15 57.84 58.96 59.41 59.62 61.01 62.56 64.26 64.86 65.39 66.52 67.56 68.52 68.63 70.50 69.93 70.49 72.01 72.16 73.39 73.70 72.26 72.03 72.31 72.56 72.86 72.77 72.45 71.70 71.04 70.55 71.13 68.92 68.39 67.91 67.28 67.14 67.45 70.23
40.29 41.97 43.95 45.13 49.49 50.78 48.75 49.90 54.02 56.28 56.79 57.01 58.13 58.71 59.47 60.41 61.48 63.54 64.50 65.10 66.00 66.96 70.06 71.12 70.68 71.55 71.27 70.09 71.86 71.48 72.06 72.09 72.15 72.29 72.51 72.98 72.64 72.30 71.87 71.45 71.45 70.69 69.01 67.79 67.42 67.62 67.73 70.27 69.09
43.22 43.35 43.53 46.51 49.73 49.67 48.89 49.07 51.58 54.40 54.93 56.03 57.01 58.33 59.20 59.62 61.50 62.72 63.66 64.57 65.03 67.74 68.73 70.13 70.16 72.43 70.46 69.76 69.75 70.30 70.31 71.34 71.64 72.40 73.01 73.04 73.07 72.69 71.15 71.73 71.16 70.51 69.01 68.80 68.43 68.54 68.74 68.84 68.89
41.65 41.24 42.43 46.39 48.43 48.52 48.84 48.61 51.50 53.32 54.45 55.86 56.60 57.47 58.28 59.37 60.38 61.46 62.65 63.46 64.53 65.87 67.72 69.57 69.81 70.99 70.81 70.17 71.54 71.85 71.83 72.09 72.38 72.73 73.18 73.26 73.15 72.66 71.93 72.26 71.03 70.95 69.56 69.20 69.52 69.91 68.20 68.26 67.88
40.18 40.20 41.66 42.99 46.61 48.43 47.63 46.19 48.98 52.47 54.28 55.52 56.53 57.38 57.88 57.92 57.95 59.33 60.08 62.01 63.57 64.74 67.16 68.02 69.73 70.36 71.27 71.71 72.05 72.18 72.64 71.75 71.04 71.76 72.21 72.71 72.70 72.71 72.75 72.26 72.09 71.74 70.72 70.21 71.16 70.42 69.25 67.21 66.00
36.15 42.14 42.80 43.03 42.85 40.14 47.31 38.86 46.97 49.94 51.14 53.10 54.47 55.64 56.46 57.24 58.35 58.65 59.16 60.65 62.48 63.50 64.54 67.18 68.89 69.66 70.76 72.12 72.56 72.52 70.50 69.65 70.71 71.76 72.48 72.44 72.94 72.70 72.48 72.64 72.20 71.70 70.90 70.74 70.34 70.07 68.90 68.11 64.60
38.45 42.26 42.59 42.86 41.93 42.50 43.75 41.29 45.13 49.50 48.73 51.46 53.82 54.60 55.75 56.61 57.01 57.47 57.89 59.43 60.65 62.02 62.88 65.37 67.59 70.03 71.81 72.22 72.37 71.00 72.10 71.69 72.30 72.17 72.81 73.08 72.84 72.83 72.49 73.25 72.74 72.31 71.06 70.95 70.21 69.10 67.83 67.45 66.39
43.19 40.85 41.92 42.58 41.19 35.06 40.79 41.41 42.15 45.62 48.19 50.53 52.78 53.57 54.28 55.13 55.85 57.29 58.72 59.64 59.93 60.88 61.85 64.39 68.87 71.13 72.23 72.04 71.77 72.23 72.59 72.48 71.50 72.02 71.59 71.69 72.19 72.53 72.81 72.41 72.33 72.08 71.08 70.83 70.03 69.95 68.05 67.50 66.84
41.29 37.19 31.40 30.78 33.27 33.40 42.16 40.12 42.48 48.41 49.16 50.40 51.47 51.37 53.23 55.16 56.21 57.17 58.09 58.68 60.51 61.28 62.28 65.60 69.77 71.17 72.07 71.85 72.20 72.83 73.09 73.26 72.95 72.41 71.46 71.25 70.16 70.13 71.33 72.07 71.50 70.73 70.96 70.45 69.63 69.16 68.09 66.94 66.34
38.74 37.38 31.87 27.09 30.58 34.91 41.47 37.20 42.30 49.26 51.51 52.04 52.30 52.22 53.81 56.39 58.01 59.71 61.23 62.65 62.62 61.55 64.09 67.07 69.74 71.23 71.76 72.06 72.53 73.08 73.37 72.20 72.04 72.14 70.93 70.07 69.15 69.60 71.84 71.40 71.27 70.82 70.36 69.61 69.06 67.70 67.11 67.67 66.72
37.67 33.69 40.46 34.68 37.67 36.12 39.12 41.85 46.29 48.45 49.10 50.66 51.03 51.27 53.48 57.24 60.37 62.46 64.24 65.45 64.31 62.51 66.34 69.01 70.82 71.51 71.77 71.89 72.01 72.20 72.23 72.04 71.32 71.85 71.55 69.63 71.03 70.62 71.35 71.05 70.16 69.80 68.97 68.74 68.26 66.60 66.85 66.69 66.24
39.42 41.85 34.66 36.70 27.68 28.87 36.63 38.69 40.28 45.12 46.50 49.15 49.93 50.94 53.11 56.11 59.12 62.52 64.58 64.98 64.47 65.56 68.53 70.55 71.76 71.45 71.65 71.64 71.78 71.33 71.49 71.29 71.22 71.00 70.31 70.48 70.54 70.00 69.94 69.42 69.31 68.61 68.10 67.89 67.46 66.84 67.08 66.55 66.14
37.40 36.84 37.64 38.03 36.85 32.71 32.61 37.70 46.99 47.67 48.78 49.40 50.46 51.60 53.15 54.27 57.35 61.77 64.57 63.96 66.11 67.84 69.44 70.83 71.23 71.00 70.82 71.08 70.94 70.48 69.97 70.25 70.37 70.05 70.16 70.10 70.12 69.32 68.56 68.18 67.73 66.98 66.63 67.00 67.04 67.04 66.56 65.93 65.91
40.09 37.60 38.68 32.21 32.93 37.11 37.45 39.14 48.77 50.00 50.19 50.59 50.69 51.97 53.44 54.46 55.81 62.00 64.50 62.63 66.63 68.03 69.63 70.30 70.53 70.30 70.27 69.69 69.46 69.45 69.56 69.65 69.59 69.29 69.48 69.59 68.67 68.51 67.49 66.97 66.42 65.99 66.44 67.27 67.10 66.28 65.98 65.70 64.97
MSLP
1012.21 1011.18 1010.50 1009.65 1007.89 1005.40 1002.88 1002.02 1001.98 1001.55 1001.66 1001.62 1001.80 1001.42 1000.74 1000.38 1000.57 1001.03 1002.43 1003.00 1003.24 1004.53 1005.88 1007.44 1008.06 1008.66 1009.13 1009.53 1009.79 1010.04 1010.44 1010.76 1011.05 1011.33 1011.76 1012.00 1012.19 1012.32 1012.67 1012.99 1013.28 1013.52 1013.76 1013.96 1014.08 1014.20 1014.27 1014.40 1014.54
1010.95 1010.91 1009.99 1007.91 1006.30 1003.32 1001.63 1001.36 1001.62 1001.43 1001.37 1001.75 1001.84 1001.80 1001.57 1000.79 1000.72 1001.39 1002.06 1003.27 1003.72 1004.78 1005.86 1006.74 1007.90 1008.34 1008.83 1009.50 1009.75 1009.98 1010.30 1010.59 1010.87 1011.19 1011.62 1012.03 1012.31 1012.55 1012.78 1013.02 1013.20 1013.43 1013.69 1013.92 1014.05 1014.20 1014.23 1014.34 1014.47
1010.93 1010.43 1008.44 1006.74 1004.81 1002.52 1000.97 1000.92 1001.17 1001.41 1001.87 1001.63 1001.39 1001.62 1001.41 1000.99 1001.14 1001.19 1001.95 1003.21 1003.93 1004.94 1005.79 1006.52 1007.61 1007.95 1008.36 1009.05 1009.45 1009.81 1010.28 1010.55 1010.83 1011.11 1011.58 1011.99 1012.28 1012.72 1012.92 1013.03 1013.19 1013.32 1013.61 1013.73 1013.97 1014.14 1014.24 1014.25 1014.26
1010.44 1009.71 1008.44 1006.19 1003.41 1002.66 1001.66 1001.52 1001.44 1001.74 1001.52 1001.55 1001.38 1001.06 1001.35 1001.23 1000.88 1001.28 1002.40 1003.21 1003.82 1004.57 1005.41 1006.47 1007.41 1007.78 1008.07 1008.79 1009.34 1009.66 1010.30 1010.53 1010.85 1011.27 1011.63 1011.96 1012.26 1012.67 1012.84 1012.99 1013.14 1013.30 1013.46 1013.56 1013.74 1013.96 1014.14 1014.18 1014.26
1009.97 1008.48 1006.71 1004.94 1003.49 1002.56 1002.16 1002.13 1002.16 1001.93 1001.57 1001.20 1001.09 1000.52 1000.72 1001.37 1001.75 1001.81 1002.51 1003.25 1003.54 1004.13 1004.91 1006.22 1007.57 1007.84 1007.99 1008.39 1009.16 1009.73 1010.24 1010.49 1010.85 1011.18 1011.64 1011.81 1012.18 1012.59 1012.93 1013.01 1013.09 1013.21 1013.43 1013.54 1013.64 1013.81 1014.03 1014.16 1014.25
1009.22 1008.07 1005.85 1004.02 1003.16 1002.67 1002.24 1002.23 1002.27 1001.83 1001.47 1001.20 1001.12 1000.58 1000.54 1001.15 1001.61 1001.94 1002.45 1003.21 1003.43 1004.16 1004.93 1005.49 1007.46 1008.02 1008.17 1008.68 1009.19 1009.47 1010.01 1010.31 1010.53 1010.92 1011.45 1011.81 1012.24 1012.48 1012.91 1013.13 1013.24 1013.32 1013.47 1013.46 1013.47 1013.69 1013.91 1014.08 1014.21
1008.77 1007.21 1005.49 1004.25 1002.98 1002.45 1002.10 1002.28 1002.04 1001.56 1001.08 1000.90 1000.83 1000.42 1000.49 1001.14 1001.34 1001.97 1002.41 1003.25 1003.64 1004.21 1004.99 1005.61 1006.60 1007.84 1008.55 1008.85 1009.01 1009.21 1009.74 1009.97 1010.27 1010.76 1011.18 1011.65 1011.98 1012.23 1012.63 1012.97 1013.05 1013.17 1013.33 1013.36 1013.30 1013.44 1013.71 1013.86 1013.97
1008.11 1007.12 1005.73 1004.63 1003.84 1003.02 1002.43 1002.22 1001.90 1001.46 1001.05 1001.46 1001.65 1000.58 1000.72 1001.21 1002.25 1002.24 1002.43 1002.96 1003.70 1004.17 1004.54 1005.36 1006.14 1006.79 1007.53 1008.07 1008.81 1009.27 1009.75 1009.96 1010.14 1010.40 1010.77 1011.28 1011.82 1012.14 1012.50 1012.74 1012.88 1012.97 1013.15 1013.22 1013.16 1013.31 1013.55 1013.73 1013.86
1008.27 1006.65 1004.50 1003.76 1004.16 1004.09 1003.61 1002.60 1001.68 1002.11 1001.84 1001.58 1001.59 1001.52 1002.00 1002.26 1002.38 1002.09 1002.39 1002.69 1003.06 1003.45 1004.19 1004.86 1005.34 1005.90 1006.52 1007.06 1007.76 1008.97 1009.40 1009.75 1010.01 1010.32 1010.52 1010.98 1011.17 1011.51 1011.83 1012.11 1012.19 1012.55 1012.68 1012.82 1012.94 1013.12 1013.32 1013.59 1013.64
1007.22 1005.55 1003.69 1003.91 1003.65 1004.03 1003.44 1002.43 1001.72 1002.19 1001.51 1001.43 1001.62 1002.15 1002.01 1002.15 1002.19 1001.86 1001.91 1001.99 1002.36 1002.65 1003.47 1004.38 1005.17 1005.67 1006.23 1006.48 1007.08 1007.90 1008.22 1008.75 1009.11 1009.41 1009.72 1010.28 1010.19 1010.44 1010.77 1011.14 1011.91 1012.22 1012.42 1012.63 1012.81 1013.00 1013.18 1013.31 1012.11
1006.04 1004.15 1003.72 1003.76 1003.99 1004.30 1003.60 1002.63 1002.14 1001.78 1001.14 1000.89 1001.06 1001.37 1001.79 1002.11 1002.04 1001.98 1001.59 1001.45 1001.60 1002.16 1002.50 1003.63 1004.88 1005.62 1005.96 1006.12 1006.48 1006.89 1007.05 1007.32 1007.88 1008.50 1008.85 1009.26 1009.53 1009.83 1010.39 1010.34 1011.08 1011.58 1012.12 1011.87 1012.23 1012.32 1012.29 1011.69 1011.36
1005.73 1004.48 1004.23 1003.79 1003.83 1004.33 1003.86 1003.38 1001.94 1001.38 1001.04 1000.91 1001.59 1001.69 1001.95 1001.98 1001.83 1001.81 1001.70 1001.38 1001.51 1001.96 1002.42 1003.07 1004.05 1005.29 1005.58 1005.58 1005.72 1005.85 1005.92 1006.16 1006.62 1007.21 1008.04 1008.52 1009.05 1009.14 1009.33 1009.55 1009.80 1010.67 1010.55 1010.86 1010.73 1010.83 1011.05 1011.09 1011.23
1004.73 1004.34 1004.28 1004.15 1004.08 1003.91 1004.41 1003.19 1002.32 1001.16 1001.01 1001.27 1001.34 1001.59 1001.62 1001.60 1001.63 1001.79 1001.95 1001.77 1001.94 1002.05 1002.23 1002.73 1003.33 1004.36 1004.96 1005.40 1005.01 1004.95 1004.91 1005.32 1005.68 1006.30 1007.04 1007.60 1007.79 1008.24 1008.85 1009.01 1009.12 1009.22 1009.56 1009.76 1010.14 1010.31 1010.53 1010.77 1010.94
1004.75 1004.49 1003.94 1004.06 1003.72 1003.93 1003.98 1002.76 1002.60 1001.05 1000.90 1001.04 1001.12 1001.24 1001.18 1001.14 1001.26 1001.41 1001.72 1001.80 1001.80 1001.89 1002.11 1002.41 1002.97 1003.69 1004.14 1004.35 1004.58 1004.47 1004.74 1004.80 1005.41 1005.68 1006.02 1006.90 1007.24 1007.61 1008.14 1008.63 1008.74 1008.79 1008.89 1009.00 1009.41 1009.81 1010.17 1010.41 1010.62
1005.27 1004.33 1003.47 1003.02 1003.31 1003.34 1003.69 1002.39 1000.07 1001.19 1000.85 1000.55 1000.54 1000.40 1000.65 1000.75 1000.94 1001.17 1001.47 1001.52 1001.75 1001.84 1002.20 1002.20 1002.50 1003.02 1003.51 1003.56 1003.75 1003.87 1003.72 1004.37 1004.59 1005.03 1005.39 1006.07 1006.90 1007.13 1007.74 1007.96 1008.23 1008.32 1008.51 1008.98 1009.28 1009.61 1010.08 1010.22 1010.45
1005.22 1004.40 1002.91 1001.53 1002.38 1002.24 1003.66 1000.38 998.64 999.84 1000.28 999.91 999.89 999.86 999.94 1000.03 1000.18 1000.62 1000.97 1001.26 1001.71 1001.94 1002.08 1002.13 1002.02 1002.27 1002.63 1002.82 1002.95 1003.03 1003.12 1003.57 1004.01 1004.31 1004.67 1005.61 1006.25 1006.71 1007.34 1007.53 1007.58 1007.73 1008.12 1008.69 1008.98 1009.32 1009.51 1009.51 1010.12
1004.61 1002.27 1001.13 1000.61 1000.46 1001.64 1002.33 999.79 998.93 999.22 998.73 998.94 998.90 999.10 999.10 999.25 999.55 1000.16 1000.65 1000.97 1001.33 1001.73 1001.94 1001.85 1001.78 1002.07 1002.20 1002.20 1002.46 1002.58 1002.89 1003.17 1003.28 1003.80 1004.37 1005.07 1005.62 1006.19 1006.68 1006.92 1006.99 1007.50 1007.83 1008.27 1008.58 1008.89 1009.12 1008.96 1009.74
1002.57 1001.55 999.92 999.08 999.92 1000.62 1001.08 999.02 998.95 998.38 998.28 998.22 998.44 998.70 998.67 998.48 998.94 999.61 999.97 1000.53 1001.04 1001.36 1001.36 1001.16 1001.28 1001.54 1001.99 1001.98 1002.01 1001.90 1002.14 1002.56 1002.86 1003.35 1003.91 1004.52 1005.07 1005.58 1006.31 1006.37 1006.70 1007.32 1007.62 1007.89 1008.40 1008.65 1008.52 1009.30 1009.28
1003.69 1001.86 999.98 999.21 999.45 999.15 999.13 998.76 998.37 998.57 998.08 997.93 997.87 997.93 998.21 998.56 998.91 999.21 999.56 1000.01 1000.85 1000.73 1000.52 1000.61 1000.80 1001.11 1001.52 1001.17 1000.81 1001.01 1001.24 1001.95 1002.38 1002.98 1003.62 1004.08 1004.57 1005.20 1005.90 1005.91 1006.56 1007.10 1006.98 1007.55 1008.06 1008.29 1008.56 1008.77 1009.23
1003.85 1002.56 1000.78 999.76 999.64 999.25 998.42 997.71 998.00 997.84 997.17 997.17 997.27 997.54 997.78 998.06 998.24 998.67 999.12 999.42 999.59 999.61 999.86 1000.11 1000.32 1000.52 1000.70 1000.48 1000.31 1000.23 1000.72 1001.16 1001.88 1002.61 1003.25 1003.67 1004.14 1004.80 1005.43 1005.47 1005.99 1006.48 1006.47 1007.17 1007.51 1007.95 1008.10 1008.52 1009.20
1004.02 1002.83 1001.85 1000.80 1000.14 999.50 998.85 997.45 997.01 996.74 996.50 996.62 996.79 997.30 997.62 997.84 997.98 998.11 998.17 998.25 998.37 998.80 999.02 999.33 999.59 999.91 999.97 1000.10 1000.28 1000.66 1000.79 1001.48 1001.92 1002.13 1002.63 1003.32 1003.93 1004.58 1004.94 1005.36 1005.53 1006.18 1006.29 1006.66 1007.35 1007.79 1008.04 1008.29 1008.85
1003.77 1003.52 1002.89 1001.68 1000.88 998.90 999.30 996.26 996.01 996.14 995.93 996.03 996.39 996.57 996.74 997.03 997.25 997.34 997.37 997.29 997.49 997.65 997.88 998.34 998.80 999.20 999.20 999.84 999.55 999.91 999.94 1000.22 1000.65 1001.17 1001.86 1003.01 1003.64 1004.19 1004.76 1005.17 1005.62 1006.02 1006.10 1006.55 1007.02 1007.42 1007.65 1007.92 1008.39
1003.15 1003.41 1002.43 1002.12 1000.95 999.94 997.87 996.82 995.07 994.72 994.49 994.69 995.17 995.66 996.07 996.18 996.49 996.16 996.07 995.92 996.04 996.50 996.89 997.42 998.26 998.38 998.56 999.03 999.16 999.65 999.60 999.71 1000.39 1000.85 1001.98 1002.51 1003.41 1004.02 1004.56 1004.91 1005.35 1005.75 1005.94 1006.57 1006.99 1007.18 1007.84 1007.69 1007.99
1003.22 1002.89 1002.50 1001.92 1001.11 999.41 998.10 996.86 995.06 994.68 994.43 994.28 994.63 995.11 995.48 995.62 995.52 995.62 995.52 995.45 995.44 995.64 996.15 997.04 997.55 997.80 998.20 998.74 999.12 999.39 999.36 999.79 1000.23 1000.95 1001.58 1002.20 1003.00 1003.85 1004.35 1004.76 1005.23 1005.63 1005.85 1006.44 1006.74 1007.08 1007.54 1007.63 1007.61
1003.51 1002.65 1002.01 1001.11 999.03 997.36 997.73 997.03 995.52 994.15 994.59 994.01 994.24 995.15 995.51 995.30 995.15 995.03 994.79 994.44 994.41 994.90 995.55 996.22 996.83 997.39 998.04 998.49 998.84 999.15 999.66 1000.02 1000.47 1000.93 1001.15 1001.86 1002.58 1003.28 1004.31 1004.73 1005.22 1005.48 1006.05 1006.24 1006.50 1006.81 1007.08 1007.46 1007.50
1003.11 1002.34 1001.29 999.31 997.95 996.94 997.00 995.48 994.66 995.11 994.78 994.81 994.98 995.37 995.40 995.10 994.93 994.81 994.50 994.29 994.25 994.34 994.98 995.56 996.25 997.02 997.84 998.21 998.55 999.20 999.69 999.92 1000.47 1000.72 1001.33 1001.77 1002.28 1003.08 1004.24 1004.65 1005.05 1005.41 1005.73 1006.04 1006.38 1006.55 1006.77 1006.95 1007.23
1002.67 1002.10 1001.17 1000.02 997.89 996.24 995.25 995.85 995.46 994.92 994.80 994.88 994.81 995.15 995.41 995.34 994.97 994.75 994.78 994.57 994.28 994.34 994.86 995.42 996.00 996.87 997.62 998.00 998.62 999.22 999.49 999.95 1000.49 1001.23 1001.81 1002.20 1002.60 1003.34 1004.15 1004.61 1004.96 1005.32 1005.65 1006.01 1006.39 1006.26 1006.81 1007.06 1007.41
1002.67 1002.13 1000.68 999.65 998.30 996.29 994.59 994.29 993.84 993.21 994.16 994.31 994.39 995.28 995.59 995.33 994.85 994.95 995.22 995.06 994.54 994.43 994.98 995.52 996.18 996.84 997.40 998.10 998.73 999.27 999.76 1000.27 1001.09 1001.67 1001.85 1002.53 1003.12 1003.49 1004.15 1004.66 1005.00 1005.34 1005.62 1005.98 1006.31 1006.25 1006.57 1006.85 1007.12
1002.81 1001.88 1001.42 999.77 998.42 996.02 994.68 993.32 992.99 993.45 994.39 994.72 995.45 996.09 996.00 995.43 995.06 994.96 995.49 995.94 994.89 994.77 995.05 995.64 996.19 996.80 997.51 998.17 998.73 999.40 999.87 1000.47 1001.18 1001.69 1002.28 1002.90 1003.41 1003.83 1004.19 1004.59 1004.95 1005.28 1005.58 1005.92 1006.15 1006.18 1006.38 1006.60 1006.93
1004.10 1003.19 1001.88 1000.17 999.19 997.16 995.45 993.89 993.90 993.99 995.24 995.58 995.88 996.18 996.14 995.80 995.25 995.00 995.72 996.35 994.96 994.97 995.31 995.85 996.42 996.89 997.59 998.30 999.00 999.70 1000.16 1000.72 1001.28 1001.83 1002.47 1003.05 1003.50 1003.88 1004.20 1004.53 1004.86 1005.12 1005.33 1005.71 1005.82 1005.96 1006.04 1006.41 1006.71
Wind_Speed
12 9 4 6 9 8 13 9 13 6 10 5 2 6 13 5 14 0 5 14 13 20 21 23 23 22 20 19 18 17 17 16 16 15 14 14 15 15 15 14 14 13 12 11 10 10 9 7 5
10 5 6 4 10 12 12 14 10 9 2 4 6 11 9 9 5 2 10 13 16 18 19 22 22 22 22 20 19 18 17 18 17 16 15 15 14 13 14 14 14 14 13 11 10 9 9 7 5
7 8 7 7 13 15 11 9 11 4 6 9 4 7 9 11 9 2 10 16 16 17 18 19 23 23 22 21 21 19 18 17 17 17 16 15 14 13 13 13 13 14 13 12 11 10 8 8 6
7 7 6 11 17 16 17 2 4 3 2 3 9 6 5 1 4 4 16 15 15 17 17 18 23 22 22 21 20 19 18 18 17 16 16 15 15 14 14 14 13 14 14 14 12 10 9 7 6
6 5 11 15 22 19 12 15 10 11 7 6 7 13 7 6 4 9 18 14 14 15 15 18 20 20 22 21 19 17 18 18 17 17 17 16 16 15 15 14 15 15 14 13 12 11 9 8 7
7 6 13 17 20 17 18 13 13 14 12 9 8 11 9 4 10 12 16 13 13 13 13 15 18 17 18 17 18 18 18 18 17 18 17 16 15 15 15 14 14 13 13 13 12 10 10 9 6
14 10 17 20 18 15 16 13 15 15 11 9 5 11 4 8 10 11 13 12 10 11 12 11 15 15 13 15 16 17 18 18 18 17 16 16 16 15 15 14 14 13 13 12 12 11 10 9 8
10 10 20 17 15 20 10 12 17 14 15 3 5 8 10 7 5 8 10 12 10 10 12 11 11 15 16 16 14 16 17 17 17 18 17 17 16 15 15 14 14 15 14 13 12 11 10 9 9
13 14 17 21 17 15 10 16 12 4 9 5 3 3 5 3 6 9 9 11 11 10 11 11 13 14 15 15 15 15 17 17 17 16 17 15 13 15 17 16 16 17 15 15 13 11 10 9 8
17 17 25 17 12 12 18 16 14 7 13 12 8 9 6 7 6 9 10 13 14 14 12 11 12 13 12 11 13 14 15 14 15 16 16 14 15 13 15 15 14 17 15 14 12 11 10 10 8
23 26 21 21 13 14 19 19 17 15 17 14 11 12 5 2 3 5 8 8 9 11 10 12 10 11 13 11 10 8 9 10 11 18 15 14 12 12 11 9 10 11 14 10 12 11 10 12 8
27 25 27 23 15 14 22 20 24 23 21 19 6 9 11 12 9 9 9 8 8 8 8 10 12 12 13 10 11 11 11 11 11 13 16 11 10 11 11 10 11 11 10 12 10 8 10 10 9
30 30 23 22 21 19 17 25 23 24 23 20 19 18 18 17 13 10 10 10 10 11 8 8 11 12 11 13 11 12 11 11 12 12 15 14 14 11 12 11 11 11 11 11 10 10 8 10 10
26 27 30 24 20 21 24 25 22 22 22 22 21 22 21 17 16 13 12 13 13 11 10 6 8 9 11 12 13 11 10 11 11 11 13 17 13 10 12 12 12 12 11 11 10 9 9 10 7
27 29 25 23 29 28 15 28 38 26 26 23 20 19 19 19 16 16 15 13 12 10 10 9 8 8 11 12 12 11 10 10 10 11 14 16 16 13 12 12 12 12 10 11 9 9 8 8 9
21 25 26 32 24 28 21 30 33 26 25 28 26 22 21 20 18 14 12 10 9 9 10 11 11 11 10 11 10 10 9 10 10 10 10 15 15 15 13 11 11 11 10 10 10 9 9 10 7
23 25 32 32 32 24 25 35 35 27 21 22 21 21 20 18 17 14 13 12 10 10 11 14 11 12 11 10 10 10 10 9 9 9 10 14 14 15 13 11 10 10 10 10 9 8 10 9 7
26 31 30 30 27 26 26 34 26 21 19 24 23 22 22 20 16 14 12 11 12 12 14 13 11 11 10 8 8 8 8 8 9 9 10 12 11 14 13 10 9 10 9 9 8 11 9 6 6
28 31 31 27 25 26 32 33 31 27 25 21 19 18 17 18 18 17 15 14 15 15 14 13 12 10 8 8 7 7 8 8 9 9 11 12 11 13 12 9 10 10 10 11 11 8 10 7 3
29 32 33 20 21 26 26 33 29 30 30 28 26 24 23 22 20 18 18 15 15 14 13 12 11 10 9 8 6 5 7 8 8 8 10 11 12 12 12 10 10 12 8 10 10 10 6 5 6
27 27 28 27 19 17 22 30 31 29 28 25 21 21 21 21 21 20 18 17 16 16 14 11 11 10 10 10 7 6 6 6 9 9 9 10 11 12 11 12 9 10 8 8 9 9 10 6 5
27 28 26 27 18 18 21 22 26 26 26 27 25 22 21 20 20 18 20 20 19 18 16 14 12 12 10 12 10 12 10 9 8 9 9 10 12 12 11 11 10 10 9 8 8 7 7 6 7
24 25 23 27 25 21 22 15 15 16 19 19 18 19 19 18 20 23 22 22 20 17 14 13 12 11 10 11 11 11 10 7 8 9 13 11 10 11 12 11 11 9 7 7 8 7 6 7 5
17 23 18 20 21 22 28 22 14 17 21 18 17 17 16 17 12 15 14 13 15 14 13 11 11 9 10 11 12 12 10 10 10 11 11 10 10 9 10 10 9 8 7 6 7 7 9 7 6
19 17 11 15 17 18 28 25 17 7 8 11 11 3 6 8 9 10 10 9 9 11 14 12 11 10 11 12 12 12 12 12 13 13 10 11 9 8 9 10 9 8 7 7 6 6 6 7 7
20 18 13 16 18 16 18 14 17 19 24 13 7 1 2 6 8 9 10 11 10 10 12 13 12 12 13 14 13 12 14 10 10 9 10 8 8 8 10 8 8 8 7 6 5 6 6 6 6
18 20 20 25 19 15 18 20 22 8 10 10 8 3 6 9 10 10 12 10 8 9 11 12 13 14 15 15 13 13 11 12 10 11 10 7 8 8 9 8 7 6 6 6 6 5 6 5 6
21 14 18 8 18 17 14 18 13 23 24 19 13 5 7 11 13 13 10 9 5 8 10 12 14 16 15 15 14 12 13 13 12 11 10 9 8 8 8 7 7 7 6 6 6 5 6 7 6
13 14 11 15 16 11 14 15 14 14 12 12 11 7 10 13 14 13 10 8 5 8 12 13 14 16 15 14 14 14 14 14 12 11 10 9 8 8 8 8 8 7 7 7 7 4 5 7 6
7 10 13 10 17 14 11 7 5 16 15 9 7 8 13 14 14 12 10 5 4 10 13 14 14 15 15 15 15 14 14 13 12 10 9 8 8 8 8 8 8 8 8 8 7 7 6 6 6
Wind_Direction
235 233 223 226 235 235 245 230 246 217 204 186 251 193 198 280 176 199 97 149 154 160 163 173 170 172 174 180 178 176 175 172 171 171 174 173 172 167 165 163 163 160 159 159 152 149 145 140 134
196 192 217 249 252 222 230 215 212 218 225 254 250 228 240 225 226 68 138 146 151 157 165 176 174 173 173 181 181 181 180 176 176 176 177 179 177 173 169 166 164 163 164 162 160 158 151 149 148
192 235 245 228 236 245 246 167 223 185 278 258 245 225 207 229 213 183 97 149 155 161 168 177 174 176 173 180 183 181 184 181 181 179 179 180 178 177 173 172 171 169 170 169 170 166 164 162 155
192 195 237 246 238 228 249 88 126 234 243 238 246 207 193 223 195 179 145 151 159 168 172 159 176 180 176 181 185 182 186 184 185 182 182 181 181 182 180 180 177 178 179 178 174 172 175 175 173
215 254 244 232 244 247 238 257 280 277 280 249 230 228 228 166 151 145 151 159 167 172 177 166 178 183 178 183 186 182 187 187 187 184 187 184 184 184 187 185 184 186 187 183 180 180 184 189 196
222 263 240 239 241 242 245 251 261 260 265 256 236 241 221 115 165 160 158 168 172 175 179 172 178 191 180 178 185 186 191 191 187 188 188 187 189 186 189 191 192 193 195 192 186 190 194 198 203
239 234 249 255 262 253 241 237 253 256 260 252 248 225 161 179 140 157 162 168 176 178 181 181 182 188 186 184 187 191 197 195 191 191 188 191 193 190 191 196 197 201 204 202 197 199 203 203 202
231 240 250 250 262 258 262 256 244 251 247 13 244 216 165 106 147 154 169 173 184 185 186 186 195 191 199 196 195 197 202 200 196 193 190 192 197 195 197 199 203 206 207 209 208 207 209 211 208
227 241 245 238 225 246 263 255 246 268 254 212 339 68 58 154 178 173 180 189 199 198 195 196 195 201 201 206 200 201 206 208 204 201 195 187 203 197 199 204 197 208 207 210 212 213 214 219 218
218 227 242 249 253 229 239 243 237 235 223 233 215 155 92 110 172 192 194 198 209 206 205 207 215 208 206 209 212 208 214 214 211 211 203 209 207 208 208 201 210 204 210 215 216 217 219 221 236
222 242 242 239 242 250 251 247 238 236 239 231 223 186 239 314 218 242 219 224 232 219 222 208 206 214 213 211 210 216 212 212 213 215 209 205 209 209 204 209 200 212 207 214 204 205 221 221 237
239 247 247 251 228 241 250 259 253 247 245 251 227 234 270 273 272 266 274 258 233 237 250 240 205 207 213 222 212 220 220 215 213 208 206 210 207 208 211 213 204 206 209 217 221 213 224 226 234
236 241 251 244 248 244 257 253 255 253 247 252 254 262 263 272 266 265 277 277 274 263 275 244 211 203 210 216 231 226 225 220 220 211 203 210 209 209 207 216 218 208 214 205 221 227 218 221 233
240 244 245 251 248 241 247 254 248 244 250 254 253 254 259 260 265 269 259 264 270 269 277 232 208 211 218 223 228 235 229 232 221 221 216 207 213 206 210 214 215 221 220 217 217 219 225 225 238
257 260 262 240 233 244 246 260 246 245 255 251 248 248 254 257 259 258 257 254 254 265 258 266 264 250 239 239 235 230 232 220 228 222 218 208 209 211 212 216 216 222 220 227 223 226 224 244 224
258 243 245 239 231 232 223 257 254 224 232 246 245 247 247 251 258 259 250 241 242 246 263 277 283 274 255 253 247 240 229 224 220 223 214 209 203 216 202 223 220 221 220 209 220 216 226 236 225
239 239 231 239 227 223 212 243 250 255 236 231 247 247 247 251 247 242 246 255 244 237 257 272 271 263 263 255 247 235 229 220 216 213 209 194 199 201 214 216 216 210 216 217 219 222 237 241 236
231 229 237 243 224 227 221 243 251 243 237 243 242 248 252 255 253 253 257 260 259 256 262 261 257 257 251 250 225 229 218 213 213 204 204 187 193 195 200 212 207 197 208 212 216 227 232 235 243
261 267 250 245 248 227 221 239 244 245 248 243 244 241 240 248 257 268 266 262 257 257 262 257 254 239 228 215 210 210 209 203 199 197 191 188 187 190 194 202 188 197 203 197 209 213 220 232 236
245 252 257 262 269 243 233 237 243 245 246 248 250 251 257 261 261 261 261 259 259 264 261 260 255 246 230 223 220 218 203 194 192 188 183 184 183 179 184 196 182 193 193 197 199 205 208 212 196
253 252 247 252 266 243 249 247 245 239 243 251 258 258 262 267 270 269 272 269 267 258 255 259 258 251 232 230 198 185 164 163 190 176 173 173 175 176 189 186 181 175 198 182 197 200 213 222 200
248 245 244 253 236 225 216 249 233 230 242 243 245 250 253 256 258 262 264 265 261 261 261 259 251 253 225 204 195 187 187 182 184 175 155 159 170 172 178 178 173 177 201 184 191 201 227 229 215
253 241 241 230 246 250 244 240 252 254 244 240 242 251 253 255 261 263 266 264 263 260 258 252 249 238 221 196 206 184 214 162 162 154 145 147 156 165 175 174 171 176 202 188 186 191 218 211 227
259 225 238 243 229 233 236 248 247 245 245 244 236 248 257 258 262 267 264 266 259 251 240 233 225 215 199 192 191 197 178 158 150 147 151 153 155 163 165 164 170 175 195 187 199 199 202 234 227
269 210 204 215 216 222 221 231 238 213 9 261 244 248 248 260 276 279 279 273 261 234 228 211 203 191 179 175 170 169 160 156 147 153 151 147 151 159 156 166 172 179 182 193 196 198 202 199 216
205 229 229 218 210 215 229 223 226 239 250 263 268 136 252 343 328 308 301 290 272 226 208 200 184 169 168 159 150 148 149 148 143 150 138 153 156 161 153 175 177 176 181 177 173 191 217 202 207
241 234 237 247 264 248 206 212 258 220 210 207 166 152 22 0 357 337 324 302 272 223 191 185 169 159 159 144 142 142 140 144 133 131 150 145 137 133 160 164 170 170 170 168 170 217 209 211 205
257 259 232 223 232 222 217 210 225 208 223 228 235 75 13 2 0 356 342 328 272 186 167 167 160 157 146 143 142 138 137 131 136 140 137 143 133 146 156 162 164 163 161 179 189 178 198 205 194
221 236 253 256 228 244 226 208 201 147 117 109 99 56 14 13 355 1 7 346 260 163 156 155 153 145 144 142 137 139 136 133 137 136 139 142 144 153 159 162 156 161 169 176 192 207 162 194 186
260 282 264 236 223 250 298 92 134 119 126 114 71 23 7 358 354 7 26 7 216 159 149 150 146 145 141 138 140 137 135 135 136 137 141 143 149 158 156 155 161 169 172 176 189 202 171 197 191